Tracking 19832 objects as of 25-Aug-2019
HD Live streaming from Space Station
objects crossing your sky now

COSMOS 2251 DEB

Track COSMOS 2251 DEB now!
10-day predictions


NORAD ID: 34045
Int'l Code: 1993-036JG
Perigee: 770.7 km
Apogee: 807.9 km
Inclination: 74.0 °
Period: 100.5 minutes
Semi major axis: 7160 km
RCS: 0.1155 m2 (medium)
Launch date: June 16, 1993
Source: Commonwealth of Independent States (former USSR) (CIS)
Launch site: PLESETSK MISSILE AND SPACE COMPLEX (PKMTR)

Note: This is SATELLITE DEBRIS
aabbcc
Your satellite tracking list
Your tracking list is empty




NASA's NSSDC Master Catalog

Two Line Element Set (TLE):
1 34045U 93036JG  19236.92989733 +.00000016 +00000-0 +15401-4 0  9990
2 34045 074.0388 196.7294 0025970 124.4816 293.9620 14.32865390550568
Source of the keplerian elements: AFSPC